SL-23 DEB (43093 NORAD) Tracking and Keplerian Element Data

This shows tracking and keplerian element data for the satellite.

Feedback or suggestion? Click here.




ElementValue
Catalog43093
NameSL-23 DEB
Epoch Orbit303
Epoch Day15.19062844
Epoch Year2018
RAAN291.7517
Inclination51.3517
Eccentricity0.0156537
Argument of Perigee141.8821
Mean Anonmoly258.0086
Mean Motion16.10895563
Decay Rate0.05994943
L11 43093U 17086G 18015.19062844 .05994943 11338-4 39649-3 0 9997
L22 43093 51.3517 291.7517 0156537 141.8821 258.0086 16.10895563 3036

Live tracking and technical data element details for SL-23 DEB (NORAD 43093). SL-23 DEB can be tracked NOW for your location showing map with azimuth and elevation plus other details from your city location.

Track the satellite on the map from your city or location and see movement details for azimuth, elevation, latitude, longitude, range, height, and movement on the map or in text.







IsCatalogInMostPopularTable: catalog: 43093, numindb: 159
Update: records affected: 1



GetName: 43093 SL-23 DEB

Hit Count: updated at: Wed, 14 Nov 2018 10:49:54 GMT